SCP
4 5 6 6 6 6 5 4 3 4 4 4 4 4 4 4 4 4 3 3 2 2 2 2 2 3 3 3 3 3 3 2 1 1 2 2 2 1 1 1 1 1 1
5 6 7 8 8 6 4 3 2 3 3 4 4 4 4 4 4 3 3 3 2 2 1 2 2 3 3 4 4 3 3 2 2 2 3 3 2 2 2 1 1 1 1
6 7 8 9 8 5 3 2 2 3 4 5 5 5 4 4 3 3 3 2 2 1 1 1 2 2 3 4 3 3 3 3 3 3 3 3 3 3 3 2 2 2 1
7 7 8 8 7 5 4 4 5 6 6 5 5 4 3 3 3 3 2 2 1 1 1 1 1 2 2 3 3 3 4 4 4 3 4 4 4 4 4 3 3 2 2
7 6 6 6 7 7 7 8 9 7 5 3 3 2 2 2 2 2 2 1 1 1 2 2 2 2 2 2 3 3 4 4 5 4 4 4 4 5 5 5 4 3 3
6 5 5 6 8 9 9 9 8 6 3 2 2 1 1 1 1 1 1 1 1 1 1 2 2 2 2 2 2 2 3 3 4 5 5 5 5 6 7 6 5 4 4
5 5 5 6 7 7 6 5 4 3 2 2 2 2 2 1 1 0 0 1 1 1 1 1 1 2 2 2 2 2 2 2 3 4 5 6 6 8 8 8 8 7 6
3 3 3 4 4 4 3 3 2 2 2 2 2 2 2 2 1 0 0 0 1 1 1 1 1 1 2 2 3 3 3 3 3 4 5 6 6 7 9 10 10 10 9
3 3 3 3 3 3 2 2 2 2 3 3 3 3 3 2 1 0 0 0 1 1 1 1 1 1 1 1 2 2 3 4 4 4 5 5 5 5 6 8 11 12 11
3 3 3 3 3 3 3 2 3 3 3 3 3 4 4 3 1 0 0 0 1 1 1 1 1 1 0 0 1 1 2 2 3 4 4 5 6 5 5 7 10 12 12
3 4 4 4 4 3 3 3 3 4 4 4 4 4 3 2 1 0 0 0 1 1 1 1 0 0 0 0 0 1 1 1 2 3 4 6 8 9 9 9 10 11 12
4 4 5 4 4 3 3 3 3 3 3 3 3 3 2 1 1 0 0 0 0 1 1 1 0 0 0 0 0 0 0 0 1 1 2 4 7 11 12 12 12 12 12
5 5 5 5 4 3 3 3 3 2 2 2 2 1 1 1 1 0 0 0 0 0 0 0 0 0 0 0 0 0 0 0 1 1 1 2 4 7 11 12 12 13 13
6 6 6 5 4 3 3 2 2 2 2 1 1 1 1 1 1 0 0 0 0 0 0 0 0 0 0 0 0 0 1 1 1 1 1 1 2 4 7 9 10 11 12
6 7 7 5 4 3 2 1 1 1 1 1 1 1 1 1 0 0 0 0 0 0 0 0 0 0 0 0 0 1 1 1 1 1 1 1 2 3 5 7 8 9 9
6 7 7 5 3 2 1 1 1 1 1 0 0 1 0 0 0 0 0 0 0 0 0 0 0 0 0 0 0 1 1 1 1 1 1 1 2 2 3 4 5 6 6
5 6 6 4 2 1 1 1 0 0 0 0 0 0 0 0 0 0 0 0 0 0 0 0 0 0 0 0 0 1 1 1 0 0 0 1 1 1 2 2 3 4 4
5 5 5 3 2 1 1 1 1 0 0 0 0 0 0 0 0 0 0 0 0 0 0 0 0 0 0 0 0 1 0 0 0 0 0 0 0 1 1 1 2 2 3
4 4 4 3 2 1 1 1 1 1 1 1 1 0 0 0 0 0 0 0 0 0 0 0 0 0 0 0 0 0 0 0 0 0 0 0 0 0 1 1 1 2 2
3 3 2 2 1 1 1 1 1 1 1 1 1 1 0 0 0 0 0 0 0 0 0 0 0 0 0 0 0 0 0 0 0 0 0 0 0 0 1 1 1 1 1
1 1 1 1 1 1 1 1 1 1 1 1 1 1 0 0 0 0 0 0 0 0 0 0 0 0 0 0 0 0 0 0 0 0 0 0 0 0 0 1 1 1 1
0 0 0 0 0 1 1 1 1 1 1 1 1 0 0 0 0 0 0 0 0 0 0 0 0 0 0 0 0 0 0 0 0 0 0 0 0 0 0 0 0 1 1
0 0 0 0 0 0 1 1 1 1 1 1 1 1 0 0 0 0 0 0 0 0 0 0 0 0 0 0 0 0 0 0 0 0 0 0 0 0 0 0 0 0 1
0 0 0 0 0 0 0 1 1 1 1 1 1 1 1 0 0 0 0 0 0 0 0 0 0 0 0 0 0 0 0 0 0 0 0 0 0 0 0 0 0 0 1
0 0 0 0 0 0 0 1 1 2 1 1 1 1 1 0 0 0 1 1 0 0 0 0 0 0 0 0 0 0 0 0 0 0 0 0 0 0 0 0 0 0 0
1 1 0 0 0 0 0 1 2 2 2 1 1 1 1 1 0 0 0 0 1 1 1 1 1 1 1 0 0 0 0 0 0 0 0 0 0 0 0 0 0 0 0
Wind_Speed
6 5 4 4 4 4 3 3 3 3 2 2 2 1 2 2 2 2 2 2 2 2 2 2 2 2 2 2 2 2 3 3 4 3 2 1 2 3 1 3 3 4 4
6 5 5 4 4 3 3 3 3 3 2 2 2 2 2 1 1 2 2 2 2 2 2 2 2 2 2 2 2 2 2 2 4 4 3 2 2 2 2 3 3 3 3
6 5 5 4 4 3 3 3 3 3 3 2 2 1 1 1 1 2 2 2 2 2 2 2 2 2 2 2 2 2 2 2 3 3 4 2 3 2 3 3 3 3 4
5 5 5 4 4 3 3 3 3 3 2 2 2 2 1 1 1 1 1 1 1 1 2 2 2 2 2 2 3 3 3 3 3 4 3 3 2 2 3 3 3 3 3
5 5 5 5 4 4 3 3 3 3 2 2 2 2 1 1 0 1 1 2 2 2 2 2 2 1 2 2 3 2 3 3 3 3 3 3 3 2 3 3 3 3 3
5 4 4 5 5 4 3 3 3 2 2 2 2 2 2 0 3 2 4 2 2 2 3 3 3 3 3 4 3 2 3 4 3 3 3 3 3 4 3 4 3 3 3
5 4 4 5 5 4 4 3 3 2 2 2 2 2 2 1 2 0 3 3 3 3 3 3 3 1 2 3 4 6 5 4 4 5 4 5 5 4 4 5 4 4 4
5 4 4 4 5 4 4 3 3 2 2 2 2 2 2 2 3 2 3 5 3 3 3 4 3 3 2 3 3 3 3 3 3 4 4 5 5 4 4 5 4 5 5
5 5 4 4 4 4 4 3 2 2 3 3 3 3 3 2 3 2 4 4 3 3 3 3 4 3 1 3 4 4 3 3 3 4 4 4 3 4 4 5 4 5 5
5 5 5 5 4 4 3 3 2 2 3 3 2 2 2 2 3 3 5 4 3 3 3 2 1 2 1 2 4 4 4 4 4 3 4 6 6 6 7 6 6 5 5
4 5 5 5 4 4 3 3 3 3 2 3 2 2 2 2 4 4 4 4 3 3 2 2 1 3 1 2 4 4 4 6 5 5 4 4 4 4 5 4 4 5 5
5 5 4 4 4 3 3 3 3 3 3 3 3 3 3 3 3 4 5 5 6 4 3 2 1 3 2 3 4 3 5 7 6 5 4 4 4 3 3 3 3 4 5
5 5 4 4 4 3 4 4 4 4 3 3 3 3 3 2 4 6 7 6 6 4 2 2 1 3 5 5 6 5 6 5 5 4 4 4 3 3 3 3 4 5 6
5 5 5 5 5 5 4 4 3 3 3 2 3 3 2 2 2 2 3 4 6 5 3 3 6 7 7 4 4 6 5 4 5 5 5 4 3 3 4 4 4 4 4
4 4 5 5 5 4 4 2 3 2 2 3 3 3 3 2 2 3 3 2 2 1 2 3 4 4 4 4 4 3 3 4 4 4 4 4 4 4 4 4 4 4 4
4 4 4 4 3 4 4 3 1 2 2 3 3 4 2 0 1 0 1 1 1 2 4 4 4 3 4 4 4 3 3 3 4 4 4 4 4 4 4 4 4 5 5
4 4 4 3 3 3 3 3 3 2 3 4 5 5 4 3 2 3 3 3 3 4 5 4 4 3 3 3 3 3 3 3 3 4 4 5 5 5 5 5 5 5 5
4 3 4 3 3 4 3 3 3 3 3 4 5 6 6 6 5 5 5 4 4 5 5 4 4 3 3 3 4 4 4 3 3 4 5 5 5 5 5 5 5 5 5
3 2 2 3 4 4 4 4 3 4 4 3 3 5 7 7 6 6 7 5 4 3 4 4 4 4 3 3 4 4 4 4 4 4 4 5 5 6 6 6 5 4 6
3 3 4 4 4 4 4 4 4 3 4 3 3 2 4 5 4 4 5 4 4 4 4 3 3 3 4 4 4 4 4 4 4 4 4 5 5 6 6 6 5 4 4
3 3 5 5 4 3 3 3 3 3 3 2 2 1 1 4 3 3 3 3 3 4 3 3 3 4 4 4 4 4 5 4 4 4 4 4 5 6 6 5 5 5 5
2 2 3 3 2 2 2 3 2 2 2 3 2 3 4 5 4 3 3 3 3 3 3 3 4 4 3 4 4 4 4 4 4 4 5 5 5 5 6 6 5 5 5
3 3 2 2 2 2 3 3 2 2 2 2 3 2 3 3 3 3 3 3 2 3 3 3 4 4 3 3 4 4 4 4 4 5 6 6 6 5 6 6 7 7 6
2 2 2 2 1 2 2 2 2 2 1 2 2 2 2 2 3 3 3 3 3 3 3 3 3 4 4 4 3 3 3 4 5 5 7 7 7 6 6 7 7 7 6
2 2 2 2 1 1 2 2 1 1 2 2 2 2 2 2 2 3 3 3 3 2 3 3 2 2 3 4 4 3 3 3 4 6 6 6 7 7 7 7 6 6 6
2 2 2 1 1 1 2 2 2 2 2 2 2 2 2 2 2 2 2 2 2 2 2 2 3 3 3 2 3 3 2 2 4 6 7 5 5 5 6 6 7 6 6
Wind_Direction
160 156 152 155 156 165 167 160 156 153 160 176 185 194 199 195 192 208 232 222 227 229 237 225 238 267 272 267 249 248 249 256 268 281 272 256 254 275 248 239 235 233 188
160 155 155 157 155 159 152 148 148 149 165 171 183 194 195 184 193 213 229 232 236 234 237 233 240 231 231 261 269 265 261 267 266 280 287 272 241 236 250 250 242 231 236
156 154 148 155 156 159 152 150 150 154 168 172 173 189 214 217 213 228 240 242 246 244 248 247 248 246 245 246 262 270 266 256 259 267 270 269 255 242 247 242 243 245 249
159 157 151 155 160 164 155 152 158 161 165 171 177 196 222 219 220 231 218 223 254 264 256 250 255 252 252 249 242 246 256 262 254 256 265 262 253 244 251 253 246 227 246
165 164 158 157 164 167 159 156 154 164 180 181 185 195 217 211 279 286 236 211 234 258 262 256 248 277 325 292 295 284 262 256 258 260 265 274 273 269 266 268 266 262 246
170 170 162 166 164 161 162 163 161 173 193 196 196 207 223 197 67 355 301 263 256 260 266 263 234 210 210 206 237 274 294 276 279 276 271 279 286 285 284 278 280 275 269
174 174 169 173 166 165 171 171 177 179 188 203 206 209 209 118 103 185 284 277 255 263 269 270 273 250 237 241 210 211 224 240 261 280 285 291 293 296 294 281 280 289 296
176 178 176 179 174 177 180 181 189 192 196 208 217 216 215 162 151 207 265 250 257 260 263 268 273 277 290 295 277 260 251 241 241 252 276 280 292 303 287 277 278 263 258
185 185 184 187 181 182 181 183 191 205 216 220 222 224 225 182 164 207 263 240 230 243 255 263 274 272 17 311 277 271 272 261 209 219 253 268 291 287 284 274 266 264 266
196 192 184 189 189 191 189 199 204 219 231 241 231 235 233 217 156 199 254 254 242 242 229 227 229 290 15 287 274 276 278 284 284 249 229 231 237 229 225 251 271 273 274
205 201 191 190 193 193 188 196 212 225 232 241 232 224 217 213 168 185 230 266 274 269 263 243 146 136 191 265 275 283 292 293 276 266 255 246 237 235 228 231 258 275 283
207 205 193 194 203 187 190 204 213 219 217 216 214 227 210 190 195 184 201 240 287 278 280 283 104 140 216 248 259 284 290 282 267 265 264 263 262 261 257 254 250 263 271
206 207 201 199 202 203 205 208 211 212 223 223 221 230 226 195 174 184 197 214 239 260 290 31 45 221 236 230 226 240 255 259 268 268 271 272 275 284 280 258 247 247 256
214 208 203 203 205 202 215 221 224 223 227 225 239 248 248 230 216 175 192 200 206 222 230 183 202 224 239 252 223 220 238 263 280 278 278 280 278 267 259 263 259 250 252
220 217 214 213 206 209 214 236 251 244 249 252 258 259 264 269 29 18 302 272 272 274 260 237 233 228 234 241 248 252 255 250 256 271 278 284 283 277 273 271 270 269 267
223 223 222 221 209 213 209 205 166 246 180 209 260 274 279 54 101 142 262 287 275 251 253 243 244 251 259 261 263 261 263 270 273 275 277 280 283 281 278 272 264 265 267
235 231 232 230 221 221 219 222 213 197 196 209 216 220 220 212 201 204 214 228 232 222 241 249 251 257 270 276 278 279 281 284 286 283 283 280 279 279 276 272 268 268 271
237 222 225 224 225 228 227 229 230 227 214 208 195 194 194 199 203 201 197 212 220 220 243 252 259 264 275 283 289 291 287 282 274 276 278 281 280 280 277 273 270 271 274
241 230 234 240 234 229 230 234 237 238 237 223 190 170 183 190 198 203 202 235 250 243 246 253 265 274 280 285 288 286 283 281 280 278 280 282 280 278 278 275 268 255 263
236 216 232 245 242 232 226 230 234 231 230 222 216 197 179 203 216 201 215 240 258 266 268 267 273 278 277 280 281 278 276 281 281 274 279 281 282 283 280 278 278 272 268
238 208 211 236 240 246 247 244 236 231 220 213 219 173 218 246 246 243 245 249 260 270 276 274 272 271 272 274 280 284 286 288 290 292 291 286 286 285 283 280 278 275 276
244 236 231 241 246 251 258 251 242 229 217 217 216 179 188 247 257 255 256 257 261 266 273 275 276 279 288 291 292 290 288 289 296 301 298 289 282 281 282 277 272 271 270
249 244 238 238 244 233 238 244 237 233 231 225 230 224 214 243 253 258 265 269 266 265 265 265 276 284 292 286 285 287 291 298 302 299 292 286 284 281 279 274 269 270 272
252 243 236 232 237 237 243 243 243 249 255 251 249 246 239 239 255 263 268 267 268 270 275 279 285 297 301 296 286 289 320 321 306 292 288 287 285 280 277 275 272 272 270
247 244 243 237 233 232 238 243 244 240 244 253 256 258 253 246 248 256 267 271 275 284 292 294 293 298 306 306 315 336 5 337 310 302 284 278 279 282 280 279 276 274 274
257 250 246 237 228 232 230 236 243 246 248 253 248 248 259 263 265 275 284 291 298 308 308 311 320 325 325 317 345 350 343 321 309 299 288 279 278 281 283 279 276 270 266